Flag for Germany Weather past 2 weeks in Sindelfingen, Baden-Württemberg, Germany

Now
70 °F

Broken clouds.


Feels Like: 70 °F
Forecast: 56 / 77 °F
Wind: 9 mph from Northwest

Location: Stuttgart-Echterdingen

Current Time: Jul 26, 2014 at 7:35:32 PM

Latest Report: Jul 26, 2014 at 6:50 PM


Visibility: N/A

Pressure: 29.95 "Hg

Humidity: 73%

Dew point: 61 °F

Location of SindelfingenLocation

Historic Weather in Sindelfingen — Graph

°F

Sindelfingen temperature yesterday

Maximum temperature yesterday: 77 °F (at 12:50 PM)
Minimum temperature yesterday: 59 °F (at 3:20 AM)
Average temperature yesterday: 67 °F

Past Weeks' High & Low Weather Summary

 TemperatureHumidityPressure
High91 °F (Jul 19, 3:50 PM)100% (Jul 20, 11:50 PM)30.21 "Hg (Jul 20, 11:50 PM)
Low57 °F (Jul 16, 2:50 AM)22% (Jul 18, 2:50 PM)29.83 "Hg (Jul 13, 4:20 PM)
Average69 °F70%29.99 "Hg
* Reported Jul 11 6:20 PM — Jul 26 6:20 PM, Sindelfingen, Weather by CustomWeather, © 2014

Note: Actual official high and low records may vary slightly from our data, if they occured in-between our weather recording intervals... More about our weather records

Advertising

Sindelfingen weather history for previous 24 hours

 ConditionsComfort  
Time TempWeatherWind HumidityBarometerVisibility
6:20 PM
Jul 26
70 °FBroken clouds.8 mph73%29.95 "HgN/A
5:50 PM70 °FBroken clouds.6 mph73%29.95 "HgN/A
5:20 PM70 °FPartly sunny.7 mph73%29.95 "HgN/A
4:50 PM70 °FPartly sunny.7 mph73%29.95 "HgN/A
4:20 PM70 °FPartly sunny.6 mph73%29.95 "HgN/A
3:50 PM70 °FPartly sunny.6 mph78%29.95 "HgN/A
3:20 PM68 °FBroken clouds.7 mph83%29.95 "HgN/A
2:50 PM68 °FLight rain. Broken clouds.10 mph88%29.95 "HgN/A
2:20 PM68 °FLight rain. More clouds than sun.3 mph88%29.95 "HgN/A
1:50 PM68 °FLight rain. Broken clouds.3 mph83%29.95 "HgN/A
1:20 PM66 °FLight rain. Broken clouds.1 mph88%29.95 "HgN/A
12:50 PM66 °FLight rain. Broken clouds.2 mph88%29.95 "Hg6 mi
12:20 PM66 °FSprinkles. Broken clouds.3 mph88%29.95 "Hg5 mi
11:50 AM66 °FRain showers. Broken clouds.7 mph83%29.98 "HgN/A
11:20 AM66 °FLight rain. Broken clouds.6 mph83%29.98 "HgN/A
10:50 AM66 °FScattered showers. Broken clouds.5 mph83%29.95 "HgN/A
10:20 AM66 °FBroken clouds.2 mph83%29.95 "HgN/A
9:50 AM64 °FBroken clouds.1 mph83%29.95 "HgN/A
9:20 AM64 °FSunny.3 mph83%29.92 "Hg10 mi
8:50 AM64 °FSunny.2 mph83%29.92 "Hg10 mi
8:20 AM63 °FSunny.2 mph88%29.92 "Hg10 mi
7:50 AM59 °FSunny.2 mph94%29.92 "Hg10 mi
7:20 AM59 °FSunny.1 mph94%29.92 "Hg10 mi
6:50 AM59 °FSunny.2 mph88%29.92 "Hg10 mi
6:20 AM61 °FClear.2 mph88%29.89 "Hg10 mi
5:50 AM59 °FClear.1 mph94%29.92 "Hg10 mi
5:20 AM61 °FClear.3 mph88%29.89 "Hg10 mi
4:50 AM59 °FClear.5 mph94%29.92 "Hg10 mi
4:20 AM59 °FClear.1 mph94%29.92 "Hg10 mi
3:50 AM59 °FClear.2 mph94%29.92 "Hg10 mi
3:20 AM61 °FClear.3 mph88%29.92 "Hg10 mi
2:50 AM61 °FClear.2 mph88%29.92 "Hg10 mi
2:20 AM61 °FClear.2 mph88%29.92 "Hg10 mi
1:50 AM61 °FClear.2 mph88%29.92 "Hg10 mi
1:20 AM61 °FClear.1 mph88%29.92 "Hg10 mi
12:50 AM63 °FClear.2 mph83%29.92 "Hg10 mi
12:20 AM63 °FClear.1 mph83%29.92 "Hg10 mi
11:50 PM
Jul 25
63 °FClear.5 mph83%29.92 "Hg10 mi
11:20 PM64 °FClear.2 mph83%29.92 "Hg10 mi
10:50 PM64 °FClear.5 mph83%29.92 "Hg10 mi
10:20 PM66 °FClear.2 mph73%29.92 "Hg10 mi
9:50 PM66 °FSunny.3 mph78%29.92 "Hg10 mi
9:20 PM68 °FSunny.1 mph69%29.89 "Hg10 mi
8:50 PM70 °FSunny.5 mph60%29.89 "Hg10 mi
8:20 PM72 °FPartly sunny.2 mph53%29.89 "HgN/A
7:50 PM72 °FPartly sunny.5 mph57%29.89 "HgN/A
7:20 PM72 °FBroken clouds.8 mph61%29.89 "HgN/A
Weather by CustomWeather, © 2014

See weather overviewHow to use our weather pages